Tracking 19484 objects as of 19-Jan-2019
HD Live streaming from Space Station
objects crossing your sky now

COSMOS 2330

Track COSMOS 2330 now!
10-day predictions
COSMOS 2330 is classified as:


NORAD ID: 23792
Int'l Code: 1996-009F
Perigee: 1,416.7 km
Apogee: 1,436.0 km
Inclination: 82.6 °
Period: 114.2 minutes
Semi major axis: 7797 km
RCS: 1.0721 m2 (large)
Launch date: February 19, 1996
Source: Commonwealth of Independent States (former USSR) (CIS)
Launch site: PLESETSK MISSILE AND SPACE COMPLEX (PKMTR)
aabbcc
Your satellite tracking list
Your tracking list is empty




NASA's NSSDC Master Catalog

Two Line Element Set (TLE):
1 23792U 96009F   19018.32783716  .00000029  00000-0  10533-3 0  9999
2 23792  82.5802 266.1023 0012330  73.3047 286.9395 12.60902499 54679
Source of the keplerian elements: AFSPC